Location: Philomena
(55.1756°N, 111.6233°W)
Time: 08:28:11
(UTC+00:00)

PCSat - Pass Details

Date: 09 December 2023
Orbit: 784 x 791 km, 67.0° (Epoch: 23 February)

Event Time Altitude Azimuth Distance (km) Brightness Sun altitude
Exits shadow 12:07:58 50° 16° (NNE) 1,003 10.1 -28.6°
Drops below altitude 10° 12:12:07 10° 40° (NE) 2,364 12.5 -28.0°
Sets 12:14:34 0° 43° (NE) 3,298 13.4 -27.6°
